Location: Zapote
(9.9191°N, 84.0597°W)
Time: 14:01:03
(UTC-06:00)

Explorer 11/Cluster Stage 4 - Visible Passes

Search period start: 04 March 2021 00:00
Search period end: 14 March 2021 00:00
Orbit: 467 x 1257 km, 28.8° (Epoch: 04 March)

Date Brightness Start Highest point End Pass type
(mag) Time Alt. Az. Time Alt. Az. Time Alt. Az.
04 Mar 9.2 03:16:10 15° NNE 03:16:10 15° NNE 03:18:04 10° NNE visible
04 Mar 9.1 04:59:46 10° NNW 05:04:05 17° N 05:08:44 10° NE visible
05 Mar 9.4 03:05:51 12° NNE 03:05:51 12° NNE 03:06:37 10° NNE visible
05 Mar 9.1 04:49:05 10° NNW 04:53:14 16° N 04:57:44 10° NE visible
06 Mar 9.1 04:38:22 10° NNW 04:42:24 16° N 04:46:47 10° NE visible
07 Mar 9.0 04:27:36 10° NNW 04:31:32 16° NNE 04:35:52 10° NE visible
08 Mar 9.0 04:17:03 11° NNW 04:20:42 16° NNE 04:24:59 10° NE visible
09 Mar 8.9 04:06:48 12° NNW 04:09:49 17° NNE 04:14:09 10° NE visible
10 Mar 8.8 03:56:36 14° N 03:58:57 17° NNE 04:03:20 10° ENE visible
11 Mar 8.7 03:46:27 16° N 03:48:04 18° NNE 03:52:30 10° ENE visible
12 Mar 8.6 03:36:21 19° N 03:37:11 19° NNE 03:41:42 10° ENE visible
12 Mar 7.7 05:20:12 10° NW 05:26:23 58° NNE 05:33:52 10° ESE visible
12 Mar 8.1 18:19:48 10° SSE 18:20:53 11° SSE 18:21:56 10° SE visible
13 Mar 8.6 03:26:19 21° NNE 03:26:19 21° NNE 03:30:52 10° ENE visible
13 Mar 7.4 05:09:16 10° NW 05:15:17 67° NNE 05:22:43 10° ESE visible
13 Mar 7.9 18:07:26 10° S 18:10:04 15° SSE 18:12:29 10° ESE visible
13 Mar 8.4 19:54:24 10° WSW 19:55:25 17° WSW 19:55:25 17° WSW visible
